sat.trackr.live / text

‹ back to catalog

STARLINK-11323 [DTC]

NORAD 61533 · 2024-184B

PAYLOAD ACTIVE UNKNOWN

§ Identity

Operator
Country
US
Launch date
2024-10-15
Launch site
AFWTR
Launch vehicle
Mass (kg)
RCS (m²)

Purposes: comms

External: N2YO · Heavens-Above · Gunter

§ Orbital elements

Epoch: 2026-05-25T04:40:00.474816Z

Period
91.74 min
Inclination
53.1586°
Eccentricity
0.0000847
Mean motion
15.69712948 rev/d
Perigee alt
359.1 km
Apogee alt
360.3 km
Semi-major
6,737.9 km
B*
1.4509e-5
RAAN
219.0943°
Arg perigee
76.8385°
Mean anomaly
283.2727°
Rev number
9,243

§ Raw data

STARLINK-11323 [DTC]1 61533U 24184B   26145.19444994  .00001170  00000+0  14509-4 0  99902 61533  53.1586 219.0943 0000847  76.8385 283.2727 15.69712948 92433

JSON: /api/v1/satellites/61533 · /tle

For live sub-satellite position, see the globe view (requires WebGL).

§ Visibility from observer

Set your observer location to see the next 7 days of passes ≥ 10°. The values pass through the URL so the page stays shareable.

No JS? Fill the form by hand. The geolocation button needs JavaScript.